Skip Page Navigation
NASA JPL Caltech
NASA Logo - Jet Propulsion Laboratory + View the NASA Portal
+ Center for Near-Earth Object Studies
JPL Home Earth Solar System Stars & Galaxies Technology
JPL Solar System Dynamics
BODIES ORBITS EPHEMERIDES TOOLS PHYSICAL DATA DISCOVERY FAQ SITE MAP
IMPORTANT: The SSD Announcement email list is now available. Major changes are coming in the near future, including possible hostname and/or URL changes. To be notified of such changes, subscribe to this email list.

Please visit this page for more details.


JPL Small-Body Database Browser
Search: [ help ]  
452564 (2005 AX37)
Classification: Main-belt Asteroid          SPK-ID: 2452564
Ephemeris | Orbit Diagram | Orbital Elements | Mission Design | Physical Parameters | Discovery Circumstances | Close-Approach Data ]

[ show orbit diagram ]
Orbital Elements at Epoch 2458600.5 (2019-Apr-27.0) TDB
Reference: JPL 12 (heliocentric ecliptic J2000)
 Element Value Uncertainty (1-sigma)   Units 
e .08906034337722998 9.6021e-08  
a 3.161178431660428 7.0319e-08 au
q 2.879642795060057 3.3619e-07 au
i 27.6217604243083 1.1276e-05 deg
node 116.2968431665238 1.5245e-05 deg
peri 311.5347733118923 6.9172e-05 deg
M 244.1080361882028 7.7207e-05 deg
tp 2459261.380234783376
(2021-Feb-15.88023478)
0.00044921 TDB
period 2052.919604575693
5.62
6.85e-05
1.875e-07
d
yr
n .1753600088369786 5.8512e-09 deg/d
Q 3.442714068260799 7.6582e-08 au
  Orbit Determination Parameters
   # obs. used (total)      124  
   data-arc span      5291 days (14.49 yr)  
   first obs. used      2005-01-07  
   last obs. used      2019-07-04  
   planetary ephem.      DE431  
   SB-pert. ephem.      SB431-N16  
   condition code      0  
   norm. resid. RMS      .4583  
   source      ORB  
   producer      Otto Matic  
   solution date      2019-Sep-24 07:57:08  

Additional Information
 Earth MOID = 1.94388 au 
 Jupiter MOID = 1.80314 au 
 T_jup = 3.022 
[ show covariance matrix ]

Ephemeris | Orbit Diagram | Orbital Elements | Mission Design | Physical Parameters | Discovery Circumstances | Close-Approach Data ]

Physical Parameter Table
Parameter Symbol Value Units Sigma Reference Notes
absolute magnitude H 15.3   n/a MPO357362  
diameter diameter 4.913 km 0.160 urn:nasa:pds:neowise_diameters_albedos::2.0[mainbelt] (http://adsabs.harvard.edu/abs/2011ApJ...741...68M)  
geometric albedo albedo 0.051   0.008 urn:nasa:pds:neowise_diameters_albedos::2.0[mainbelt] (http://adsabs.harvard.edu/abs/2011ApJ...741...68M)  

452564 (2005 AX37)          Discovered 2005-Jan-13 by Spacewatch at Kitt Peak
Reference: Last Updated: 2016-01-04

[ show close-approach data ]
Ephemeris | Orbit Diagram | Orbital Elements | Mission Design | Physical Parameters | Discovery Circumstances | Close-Approach Data ]
ABOUT SSD CREDITS/AWARDS PRIVACY/COPYRIGHT GLOSSARY LINKS
FirstGov 2019-Dec-06 21:23 UT
(server date/time)  
NASA Home Page
Site Manager:   Ryan S. Park
Webmaster  Alan B. Chamberlin